| time (UTC) | temp C | wind direction | speed KPH | gust KPH | rain 1hr cm | rain 24hr cm | rain mn cm | humidity % | barometer mb |
| 20260504100321 | 8 | 188 | 16.1 | 20.9 | 0.00 | 0.00 | 0.00 | 59 | 1008.0 |
| 20260504081842 | 8 | 247 | 8.0 | 17.7 | 0.00 | 0.00 | 0.00 | 59 | 1008.2 |
| 20260504081330 | 8 | 223 | 9.7 | 17.7 | 0.00 | 0.00 | 0.00 | 59 | 1008.2 |
| 20260504080839 | 8 | 182 | 6.4 | 17.7 | 0.00 | 0.00 | 0.00 | 59 | 1008.2 |
| 20260504080326 | 8 | 215 | 11.3 | 17.7 | 0.00 | 0.00 | 0.00 | 59 | 1008.3 |
| 20260504070321 | 9 | 198 | 6.4 | 19.3 | 0.00 | 0.00 | 0.00 | 59 | 1007.9 |
| 20260504050316 | 10 | 189 | 8.0 | 14.5 | 0.00 | 0.00 | 0.00 | 61 | 1008.3 |
| 20260504045826 | 10 | 200 | 8.0 | 9.7 | 0.00 | 0.00 | 0.00 | 61 | 1008.3 |
| 20260504045335 | 9 | 191 | 4.8 | 9.7 | 0.00 | 0.00 | 0.00 | 61 | 1008.3 |
| 20260504044837 | 10 | 213 | 4.8 | 8.0 | 0.00 | 0.00 | 0.00 | 61 | 1008.4 |
| 20260504044338 | 10 | 194 | 4.8 | 11.3 | 0.00 | 0.00 | 0.00 | 61 | 1008.4 |
| 20260504043825 | 10 | 200 | 4.8 | 11.3 | 0.00 | 0.00 | 0.00 | 61 | 1008.5 |
| 20260504043332 | 10 | 201 | 6.4 | 14.5 | 0.00 | 0.00 | 0.00 | 60 | 1008.5 |
| 20260504042821 | 10 | 223 | 8.0 | 14.5 | 0.00 | 0.00 | 0.00 | 61 | 1008.5 |
| 20260504042329 | 10 | 194 | 4.8 | 8.0 | 0.00 | 0.00 | 0.00 | 61 | 1008.6 |
| 20260504041831 | 10 | 187 | 3.2 | 8.0 | 0.00 | 0.00 | 0.00 | 61 | 1008.6 |
| 20260504041321 | 10 | 195 | 1.6 | 4.8 | 0.00 | 0.00 | 0.00 | 61 | 1008.8 |
| 20260504040824 | 10 | 205 | 3.2 | 4.8 | 0.00 | 0.00 | 0.00 | 61 | 1008.8 |
| 20260504040326 | 10 | 213 | 1.6 | 4.8 | 0.00 | 0.00 | 0.00 | 61 | 1008.8 |
| 20260504035849 | 10 | 249 | 1.6 | 6.4 | 0.00 | 0.00 | 0.00 | 61 | 1008.9 |
| 20260504035315 | 10 | 257 | 3.2 | 11.3 | 0.00 | 0.00 | 0.00 | 61 | 1009.0 |
| 20260504034824 | 10 | 302 | 8.0 | 20.9 | 0.00 | 0.00 | 0.00 | 60 | 1009.1 |
| 20260504034332 | 10 | 295 | 6.4 | 22.5 | 0.00 | 0.00 | 0.00 | 61 | 1009.2 |
| 20260504033821 | 10 | 246 | 12.9 | 17.7 | 0.00 | 0.00 | 0.00 | 60 | 1009.2 |
| 20260504033326 | 10 | 280 | 4.8 | 12.9 | 0.00 | 0.00 | 0.00 | 59 | 1009.2 |
| 20260504032813 | 10 | 277 | 4.8 | 8.0 | 0.00 | 0.00 | 0.00 | 59 | 1009.1 |
| 20260504032343 | 10 | 255 | 3.2 | 8.0 | 0.00 | 0.00 | 0.00 | 59 | 1009.1 |
| 20260504031851 | 10 | 268 | 3.2 | 9.7 | 0.00 | 0.00 | 0.00 | 59 | 1009.2 |
| 20260504031319 | 10 | 284 | 3.2 | 17.7 | 0.00 | 0.00 | 0.00 | 59 | 1009.2 |
| 20260504030829 | 10 | 308 | 6.4 | 19.3 | 0.00 | 0.00 | 0.00 | 59 | 1009.1 |
| 20260504030335 | 10 | 305 | 8.0 | 19.3 | 0.00 | 0.00 | 0.00 | 59 | 1009.2 |
| 20260504025844 | 10 | 279 | 6.4 | 19.3 | 0.00 | 0.00 | 0.00 | 59 | 1009.2 |
| 20260504025332 | 10 | 271 | 4.8 | 19.3 | 0.00 | 0.00 | 0.00 | 59 | 1009.2 |
| 20260504024820 | 10 | 238 | 9.7 | 19.3 | 0.00 | 0.00 | 0.00 | 59 | 1009.2 |
| 20260504024348 | 10 | 272 | 9.7 | 16.1 | 0.00 | 0.00 | 0.00 | 59 | 1009.3 |
| 20260504023813 | 10 | 195 | 6.4 | 9.7 | 0.00 | 0.00 | 0.00 | 59 | 1009.2 |
| 20260504023323 | 10 | 291 | 1.6 | 14.5 | 0.00 | 0.00 | 0.00 | 59 | 1009.2 |
| 20260504022828 | 9 | 268 | 3.2 | 17.7 | 0.00 | 0.00 | 0.00 | 60 | 1009.3 |
| 20260504022330 | 9 | 323 | 8.0 | 17.7 | 0.00 | 0.00 | 0.00 | 61 | 1009.4 |
| 20260504021820 | 8 | 275 | 8.0 | 20.9 | 0.00 | 0.00 | 0.00 | 63 | 1009.4 |
| 20260504021322 | 7 | 226 | 12.9 | 20.9 | 0.00 | 0.00 | 0.00 | 68 | 1009.3 |
| 20260504020830 | 6 | 178 | 3.2 | 4.8 | 0.00 | 0.00 | 0.00 | 69 | 1009.3 |
| 20260504020340 | 6 | 178 | 1.6 | 4.8 | 0.00 | 0.00 | 0.00 | 69 | 1009.2 |
| 20260504015826 | 6 | 178 | 3.2 | 4.8 | 0.00 | 0.00 | 0.00 | 69 | 1009.2 |
| 20260504015331 | 6 | 178 | 3.2 | 3.2 | 0.00 | 0.00 | 0.00 | 68 | 1009.2 |
| 20260504014819 | 6 | 178 | 0.0 | 3.2 | 0.00 | 0.00 | 0.00 | 68 | 1009.1 |
| 20260504014328 | 6 | 178 | 0.0 | 3.2 | 0.00 | 0.00 | 0.00 | 68 | 1008.9 |
| 20260504013818 | 7 | 179 | 0.0 | 1.6 | 0.00 | 0.00 | 0.00 | 67 | 1008.9 |
| 20260504013326 | 7 | 178 | 0.0 | 3.2 | 0.00 | 0.00 | 0.00 | 65 | 1009.0 |
| 20260504012813 | 7 | 179 | 1.6 | 3.2 | 0.00 | 0.00 | 0.00 | 65 | 1009.0 |
| 20260504012324 | 7 | 178 | 3.2 | 4.8 | 0.00 | 0.00 | 0.00 | 65 | 1009.1 |
| 20260504011831 | 7 | 178 | 1.6 | 4.8 | 0.00 | 0.00 | 0.00 | 64 | 1009.2 |
| 20260504011317 | 7 | 171 | 0.0 | 3.2 | 0.00 | 0.00 | 0.00 | 64 | 1009.3 |
| 20260504010823 | 8 | 196 | 1.6 | 3.2 | 0.00 | 0.00 | 0.00 | 61 | 1009.3 |
| 20260504010331 | 8 | 286 | 0.0 | 1.6 | 0.00 | 0.00 | 0.00 | 60 | 1009.2 |
| 20260504005819 | 8 | 286 | 0.0 | 1.6 | 0.00 | 0.00 | 0.00 | 59 | 1009.1 |
| 20260504005328 | 8 | 286 | 0.0 | 0.0 | 0.00 | 0.00 | 0.00 | 58 | 1009.0 |
| 20260504004838 | 8 | 286 | 0.0 | 0.0 | 0.00 | 0.00 | 0.00 | 58 | 1008.9 |
| 20260504004320 | 9 | 286 | 0.0 | 0.0 | 0.00 | 0.00 | 0.00 | 57 | 1008.9 |
| 20260504003829 | 9 | 286 | 0.0 | 0.0 | 0.00 | 0.00 | 0.00 | 56 | 1008.8 |
| 20260504003315 | 10 | 286 | 0.0 | 1.6 | 0.00 | 0.00 | 0.00 | 54 | 1008.7 |
| 20260504002823 | 10 | 286 | 1.6 | 3.2 | 0.00 | 0.00 | 0.00 | 54 | 1008.6 |
| 20260504002332 | 10 | 286 | 0.0 | 3.2 | 0.00 | 0.00 | 0.00 | 53 | 1008.5 |
| 20260504001821 | 10 | 286 | 1.6 | 3.2 | 0.00 | 0.00 | 0.00 | 53 | 1008.6 |
| 20260504001351 | 10 | 284 | 1.6 | 6.4 | 0.00 | 0.00 | 0.00 | 53 | 1008.5 |
| 20260504000839 | 10 | 282 | 1.6 | 8.0 | 0.00 | 0.00 | 0.00 | 52 | 1008.5 |
| 20260504000326 | 10 | 265 | 4.8 | 8.0 | 0.00 | 0.00 | 0.00 | 52 | 1008.4 |
| 20260503235830 | 10 | 287 | 4.8 | 14.5 | 0.00 | 0.00 | 0.00 | 52 | 1008.4 |
| 20260503235318 | 10 | 289 | 6.4 | 14.5 | 0.00 | 0.00 | 0.00 | 52 | 1008.4 |
| 20260503234826 | 10 | 306 | 3.2 | 9.7 | 0.00 | 0.00 | 0.00 | 52 | 1008.2 |
| 20260503234318 | 10 | 301 | 3.2 | 8.0 | 0.00 | 0.00 | 0.00 | 51 | 1008.2 |
| 20260503233829 | 10 | 308 | 3.2 | 19.3 | 0.00 | 0.00 | 0.00 | 51 | 1008.2 |
| 20260503233330 | 11 | 306 | 11.3 | 19.3 | 0.00 | 0.00 | 0.00 | 51 | 1008.1 |
| 20260503232838 | 11 | 309 | 4.8 | 19.3 | 0.00 | 0.00 | 0.00 | 51 | 1008.2 |
| 20260503232319 | 11 | 316 | 12.9 | 19.3 | 0.00 | 0.00 | 0.00 | 51 | 1008.2 |
| 20260503231825 | 11 | 271 | 6.4 | 16.1 | 0.00 | 0.00 | 0.00 | 51 | 1008.1 |
| 20260503231317 | 11 | 268 | 4.8 | 22.5 | 0.00 | 0.00 | 0.00 | 52 | 1008.2 |
| 20260503230824 | 10 | 286 | 11.3 | 22.5 | 0.00 | 0.00 | 0.00 | 52 | 1008.3 |
| 20260503230314 | 10 | 293 | 6.4 | 22.5 | 0.00 | 0.00 | 0.00 | 52 | 1008.3 |
| 20260503225823 | 10 | 302 | 8.0 | 19.3 | 0.00 | 0.00 | 0.00 | 52 | 1008.3 |
| 20260503225332 | 10 | 273 | 9.7 | 19.3 | 0.00 | 0.00 | 0.00 | 51 | 1008.3 |
| 20260503224822 | 10 | 250 | 8.0 | 19.3 | 0.00 | 0.00 | 0.00 | 51 | 1008.2 |
| 20260503224330 | 10 | 314 | 9.7 | 25.7 | 0.00 | 0.00 | 0.00 | 51 | 1008.2 |
| 20260503223816 | 10 | 279 | 19.3 | 29.0 | 0.00 | 0.00 | 0.00 | 51 | 1008.2 |
| 20260503223325 | 10 | 267 | 19.3 | 29.0 | 0.00 | 0.00 | 0.00 | 50 | 1008.1 |
| 20260503222833 | 10 | 300 | 11.3 | 29.0 | 0.00 | 0.00 | 0.00 | 50 | 1008.2 |
| 20260503222323 | 10 | 267 | 17.7 | 29.0 | 0.00 | 0.00 | 0.00 | 49 | 1008.1 |
| 20260503221832 | 11 | 253 | 8.0 | 25.7 | 0.00 | 0.00 | 0.00 | 49 | 1008.1 |
| 20260503221322 | 11 | 273 | 11.3 | 24.1 | 0.00 | 0.00 | 0.00 | 50 | 1008.1 |
| 20260503220828 | 10 | 296 | 9.7 | 24.1 | 0.00 | 0.00 | 0.00 | 49 | 1008.1 |
| 20260503220318 | 11 | 226 | 16.1 | 30.6 | 0.00 | 0.00 | 0.00 | 48 | 1008.1 |
| 20260503215822 | 11 | 326 | 9.7 | 30.6 | 0.00 | 0.00 | 0.00 | 48 | 1008.2 |
| 20260503215330 | 11 | 296 | 14.5 | 24.1 | 0.00 | 0.00 | 0.00 | 48 | 1008.2 |
| 20260503214819 | 11 | 317 | 16.1 | 27.4 | 0.00 | 0.00 | 0.00 | 47 | 1008.2 |
| 20260503214327 | 11 | 344 | 14.5 | 27.4 | 0.00 | 0.00 | 0.00 | 46 | 1008.1 |
| 20260503213836 | 11 | 306 | 11.3 | 20.9 | 0.00 | 0.00 | 0.00 | 45 | 1008.1 |
| 20260503213319 | 11 | 325 | 9.7 | 20.9 | 0.00 | 0.00 | 0.00 | 45 | 1007.9 |
| 20260503212828 | 11 | 327 | 8.0 | 27.4 | 0.00 | 0.00 | 0.00 | 45 | 1007.9 |
| 20260503212317 | 11 | 303 | 11.3 | 29.0 | 0.00 | 0.00 | 0.00 | 44 | 1008.0 |
| 20260503211822 | 11 | 315 | 17.7 | 29.0 | 0.00 | 0.00 | 0.00 | 43 | 1007.8 |
| 20260503211349 | 11 | 293 | 11.3 | 35.4 | 0.00 | 0.00 | 0.00 | 43 | 1007.9 |
| 20260503210817 | 11 | 307 | 17.7 | 35.4 | 0.00 | 0.00 | 0.00 | 43 | 1007.8 |
| 20260503210326 | 11 | 277 | 14.5 | 30.6 | 0.00 | 0.00 | 0.00 | 42 | 1007.8 |
| 20260503205814 | 11 | 302 | 16.1 | 30.6 | 0.00 | 0.00 | 0.00 | 41 | 1007.9 |
| 20260503205336 | 11 | 310 | 11.3 | 29.0 | 0.00 | 0.00 | 0.00 | 41 | 1006.9 |
| 20260503204825 | 11 | 290 | 12.9 | 30.6 | 0.00 | 0.00 | 0.00 | 40 | 1006.8 |
| 20260503204330 | 11 | 249 | 20.9 | 30.6 | 0.00 | 0.00 | 0.00 | 39 | 1006.9 |
| 20260503203816 | 11 | 281 | 19.3 | 27.4 | 0.00 | 0.00 | 0.00 | 39 | 1006.8 |
| 20260503203328 | 11 | 276 | 17.7 | 25.7 | 0.00 | 0.00 | 0.00 | 38 | 1006.9 |
| 20260503202814 | 11 | 348 | 17.7 | 25.7 | 0.00 | 0.00 | 0.00 | 38 | 1006.9 |
| 20260503202321 | 12 | 281 | 19.3 | 24.1 | 0.00 | 0.00 | 0.00 | 38 | 1006.8 |
| 20260503201828 | 11 | 254 | 14.5 | 25.7 | 0.00 | 0.00 | 0.00 | 37 | 1006.9 |
| 20260503201335 | 11 | 315 | 17.7 | 33.8 | 0.00 | 0.00 | 0.00 | 37 | 1007.1 |
| 20260503200838 | 11 | 339 | 12.9 | 33.8 | 0.00 | 0.00 | 0.00 | 37 | 1007.0 |
| 20260503200322 | 11 | 291 | 14.5 | 29.0 | 0.00 | 0.00 | 0.00 | 36 | 1007.2 |
| 20260503195828 | 11 | 301 | 11.3 | 24.1 | 0.00 | 0.00 | 0.00 | 36 | 1007.2 |
| 20260503195315 | 11 | 317 | 8.0 | 27.4 | 0.00 | 0.00 | 0.00 | 36 | 1007.3 |
| 20260503194843 | 11 | 351 | 16.1 | 27.4 | 0.00 | 0.00 | 0.00 | 36 | 1007.4 |
| 20260503194328 | 11 | 243 | 8.0 | 25.7 | 0.00 | 0.00 | 0.00 | 37 | 1007.4 |
| 20260503193833 | 11 | 314 | 14.5 | 25.7 | 0.00 | 0.00 | 0.00 | 37 | 1007.5 |
| 20260503193315 | 11 | 308 | 16.1 | 22.5 | 0.00 | 0.00 | 0.00 | 38 | 1007.6 |
| 20260503192825 | 11 | 311 | 6.4 | 25.7 | 0.00 | 0.00 | 0.00 | 39 | 1007.6 |
| 20260503192330 | 10 | 339 | 17.7 | 25.7 | 0.00 | 0.00 | 0.00 | 39 | 1007.7 |
| 20260503191821 | 10 | 265 | 11.3 | 29.0 | 0.00 | 0.00 | 0.00 | 39 | 1007.8 |
| 20260503191326 | 10 | 328 | 12.9 | 30.6 | 0.00 | 0.00 | 0.00 | 38 | 1007.7 |
| 20260503190818 | 10 | 286 | 20.9 | 30.6 | 0.00 | 0.00 | 0.00 | 39 | 1007.8 |
| 20260503190346 | 10 | 334 | 14.5 | 27.4 | 0.00 | 0.00 | 0.00 | 38 | 1007.9 |
| 20260503185830 | 10 | 319 | 8.0 | 32.2 | 0.00 | 0.00 | 0.00 | 39 | 1008.0 |
| 20260503185317 | 10 | 295 | 14.5 | 32.2 | 0.00 | 0.00 | 0.00 | 41 | 1008.0 |
| 20260503184826 | 10 | 286 | 17.7 | 27.4 | 0.00 | 0.00 | 0.00 | 41 | 1008.2 |
| 20260503184333 | 10 | 338 | 9.7 | 27.4 | 0.00 | 0.00 | 0.00 | 41 | 1008.2 |
| 20260503183839 | 10 | 355 | 20.9 | 27.4 | 0.00 | 0.00 | 0.00 | 41 | 1008.2 |
| 20260503183323 | 10 | 291 | 14.5 | 27.4 | 0.00 | 0.00 | 0.00 | 41 | 1008.4 |
| 20260503182828 | 10 | 331 | 16.1 | 30.6 | 0.00 | 0.00 | 0.00 | 42 | 1008.4 |
| 20260503182330 | 10 | 338 | 9.7 | 35.4 | 0.00 | 0.00 | 0.00 | 42 | 1008.4 |
| 20260503181837 | 10 | 251 | 16.1 | 37.0 | 0.00 | 0.00 | 0.00 | 43 | 1008.4 |
| 20260503181324 | 10 | 201 | 16.1 | 37.0 | 0.00 | 0.00 | 0.00 | 42 | 1008.5 |
| 20260503180828 | 9 | 295 | 19.3 | 29.0 | 0.00 | 0.00 | 0.00 | 44 | 1008.5 |
| 20260503180317 | 8 | 283 | 9.7 | 27.4 | 0.00 | 0.00 | 0.00 | 44 | 1008.5 |
| 20260503175843 | 8 | 297 | 12.9 | 20.9 | 0.00 | 0.00 | 0.00 | 44 | 1008.5 |
| 20260503175329 | 9 | 337 | 12.9 | 25.7 | 0.00 | 0.00 | 0.00 | 45 | 1008.7 |
| 20260503174834 | 8 | 254 | 17.7 | 25.7 | 0.00 | 0.00 | 0.00 | 44 | 1008.8 |
| 20260503174320 | 8 | 336 | 12.9 | 25.7 | 0.00 | 0.00 | 0.00 | 44 | 1008.7 |
| 20260503173826 | 8 | 320 | 12.9 | 25.7 | 0.00 | 0.00 | 0.00 | 43 | 1008.7 |
| 20260503173334 | 8 | 300 | 11.3 | 30.6 | 0.00 | 0.00 | 0.00 | 44 | 1008.8 |
| 20260503172821 | 8 | 236 | 17.7 | 30.6 | 0.00 | 0.00 | 0.00 | 43 | 1008.7 |
| 20260503172326 | 8 | 343 | 14.5 | 24.1 | 0.00 | 0.00 | 0.00 | 45 | 1008.9 |
| 20260503171832 | 8 | 328 | 4.8 | 22.5 | 0.00 | 0.00 | 0.00 | 43 | 1008.8 |
| 20260503171324 | 8 | 289 | 12.9 | 25.7 | 0.00 | 0.00 | 0.00 | 45 | 1008.9 |
| 20260503170827 | 8 | 308 | 17.7 | 29.0 | 0.00 | 0.00 | 0.00 | 45 | 1008.9 |
| 20260503170353 | 8 | 306 | 16.1 | 29.0 | 0.00 | 0.00 | 0.00 | 43 | 1008.9 |
| 20260503150842 | 5 | 266 | 8.0 | 24.1 | 0.00 | 0.00 | 0.00 | 58 | 1009.9 |
| 20260503150330 | 5 | 301 | 11.3 | 29.0 | 0.00 | 0.00 | 0.00 | 57 | 1009.9 |
| 20260503131344 | 5 | 322 | 17.7 | 25.7 | 0.00 | 0.00 | 0.00 | 63 | 1009.9 |
| 20260503130820 | 5 | 317 | 8.0 | 22.5 | 0.00 | 0.00 | 0.00 | 65 | 1009.9 |
| 20260503130330 | 5 | 315 | 11.3 | 22.5 | 0.00 | 0.00 | 0.00 | 66 | 1010.0 |
| 20260503110817 | 2 | 321 | 3.2 | 11.3 | 0.00 | 0.00 | 0.00 | 86 | 1009.6 |
| 20260503110318 | 2 | 338 | 6.4 | 11.3 | 0.00 | 0.00 | 0.00 | 88 | 1009.5 |